Showing default

NIMBUS 6, 7924

Orbit data source: Space-Track

NIMBUS 6, 7924 is a payload satellite owned by GSFC (US) in SSO that was launched on Thu, 12 Jun 1975 UTC via a DELTA 2910 launch vehicle from the Air Force Western Test Range (AFWTR). Payload-class satellites include a variety of spacecraft equipped with specific instruments for various scientific and technological missions. These include communications satellites like Starlink; space stations such as the ISS; scientific satellites like the Hubble; Earth observation satellites from companies like Planet Labs, Umbra, and HawkEye 360; GPS; miniature CubeSats for education and research; and military/defense satellites.

Loading next visibility...
Identifier
7924, 1975-052A
Orbit
SSO
Country
Flag of USUS
Related business
Manufacturer
GE/MSVD
Mission
Non-operational spacecraft
Bus & Motor
NIMBUS, Unknown motor
Mass
827 kg wet, 827 kg dry
Launch date (UTC)
1975-06-12 (51 years ago)
Launch vehicle
DELTA 2910
Launch site
Air Force Western Test Range (AFWTR)
Object type
Payload
Rocket body
Debris
Shape & HBR
Unknown
Radar Cross Section
Large (>1 m²)

Expand to show TLE details & history
Last TLE update: 2 days ago

TLE from 2 days ago
0 NIMBUS 6
1  7924U 75052A   26171.41400167 -.00000028  00000-0  29357-4 0  9992
2  7924 100.0033  83.6243 0007412 210.7793 266.3274 13.40823295496567
Epoch: 2026-06-20T09:56Z
TLE epoch observation values (Epoch: 2026-06-20T09:56:09.744Z)
Latitude
61.40941°
Longitude
-135.26211°
Altitude
1,116.976 km
Speed
7.3 km/s
True Right ascension
18h 49m 37s
True Declination
61° 16' 18"
Sunlit
Object was in daylight at epoch
Visualization orbit readout
Latitude
Unknown
Longitude
Unknown
Altitude
Unknown
Speed
Unknown
Apparent Right ascension
Unknown
Apparent Declination
Unknown
Sunlit
N/A
Visualization observer readout
Local Sidereal Time
23:27:17
Azimuth
Unknown
Elevation
Unknown
Doppler factor
Unknown
Orbital elements
Apogee altitude
1,109.089 km
Perigee altitude
1,097.998 km
Semi-major axis
7,481.68 km
Eccentricity
0.00074
Inclination
100.0033°
RAAN
83.6243°
Arg. of periapsis
210.7793°
True anomaly
266.24264°
Mean anomaly
266.3274°
Eccentric anomaly
266.28502°
Mean motion
3.35386 °/min
Orbital period
107.34 mins
BSTAR
0.000029357
Loading maneuver chart data...
Computing Atmospheric mass density...
Loading historical data...
Loading historical data...
Loading historical data...
Loading historical data...
Loading historical data...
Loading historical data...
Loading historical data...

Documentation

Showing up to 5 results
|